VCV1169 SVMI-MMSM

Flight info

Callsign VCV1169
Flight time N/A
Altitude 38000
Route MARES1 MARES A315 ATONO UW1 CRO UM787 REBIM DCT EDMOL UM409 KINOP DCT ADSOV DCT GADIM UL349 ONDOM/N0472F400 UL349 VSA UJ5 MTT UJ64 MEBAS DCT OTIGA OTIGA1R
Aircraft A343/H-SDE2E3FGHIJ4J5M1RWXY/LB1D1

Departure

Time 2026-05-04 23:23
Airport Maiquetía Simón Bolívar International Airport (SVMI)

Arrival

Time N/A
Airport Felipe Ángeles International Airport (MMSM)
Time Latitude Longitude Altitude Speed Heading
2026-05-04 22:50 10.59834 -67.00675 263 ft 0 kts 178°
2026-05-04 23:07 10.59840 -67.00675 238 ft 4 kts 178°
2026-05-04 23:08 10.59867 -67.00676 239 ft 4 kts 178°
2026-05-04 23:08 10.59890 -67.00676 241 ft 4 kts 189°
2026-05-04 23:08 10.59910 -67.00666 241 ft 4 kts 246°
2026-05-04 23:08 10.59916 -67.00640 240 ft 4 kts 268°
2026-05-04 23:09 10.59916 -67.00631 239 ft 0 kts 268°
2026-05-04 23:17 10.59916 -67.00633 235 ft 2 kts 268°
2026-05-04 23:17 10.59915 -67.00655 235 ft 4 kts 268°
2026-05-04 23:17 10.59914 -67.00679 235 ft 4 kts 268°
2026-05-04 23:17 10.59912 -67.00734 236 ft 9 kts 268°
2026-05-04 23:18 10.59910 -67.00792 237 ft 8 kts 268°
2026-05-04 23:18 10.59908 -67.00846 238 ft 7 kts 268°
2026-05-04 23:18 10.59906 -67.00895 239 ft 8 kts 268°
2026-05-04 23:18 10.59904 -67.00968 240 ft 11 kts 268°
2026-05-04 23:19 10.59901 -67.01042 242 ft 10 kts 268°
2026-05-04 23:19 10.59899 -67.01110 243 ft 9 kts 269°
2026-05-04 23:19 10.59898 -67.01172 244 ft 8 kts 269°
2026-05-04 23:19 10.59923 -67.01227 245 ft 9 kts 325°
2026-05-04 23:20 10.59995 -67.01240 245 ft 12 kts 354°
2026-05-04 23:20 10.60096 -67.01245 245 ft 16 kts 358°
2026-05-04 23:20 10.60118 -67.01245 245 ft 1 kts 358°
2026-05-04 23:20 10.60132 -67.01246 244 ft 3 kts 358°
2026-05-04 23:21 10.60171 -67.01247 235 ft 8 kts 358°
2026-05-04 23:21 10.60210 -67.01230 241 ft 3 kts 68°
2026-05-04 23:21 10.60213 -67.01205 240 ft 0 kts 87°
2026-05-04 23:21 10.60214 -67.01194 240 ft 3 kts 87°
2026-05-04 23:22 10.60215 -67.01157 238 ft 7 kts 87°
2026-05-04 23:22 10.60218 -67.01091 237 ft 20 kts 87°
2026-05-04 23:22 10.60230 -67.00758 230 ft 75 kts 88°
2026-05-04 23:22 10.60250 -67.00054 228 ft 122 kts 88°
2026-05-04 23:23 10.60290 -66.99059 306 ft 148 kts 85°
2026-05-04 23:23 10.60386 -66.98084 714 ft 148 kts 78°
2026-05-04 23:23 10.61182 -66.97218 638 ft 187 kts 20°
2026-05-04 23:23 10.62467 -66.97281 1148 ft 188 kts 340°
2026-05-04 23:24 10.63432 -66.98184 1542 ft 202 kts 295°
2026-05-04 23:24 10.63804 -66.99612 1802 ft 224 kts 278°
2026-05-04 23:24 10.64000 -67.01289 2109 ft 251 kts 275°
2026-05-04 23:24 10.64385 -67.03053 2728 ft 262 kts 297°
2026-05-04 23:25 10.65432 -67.04588 3474 ft 268 kts 309°
2026-05-04 23:25 10.66650 -67.06078 3846 ft 278 kts 310°
2026-05-04 23:25 10.67878 -67.07570 4085 ft 278 kts 309°
2026-05-04 23:25 10.69122 -67.09098 4558 ft 282 kts 309°
2026-05-04 23:26 10.70382 -67.10654 5270 ft 287 kts 309°
2026-05-04 23:26 10.71660 -67.12240 5971 ft 292 kts 308°
2026-05-04 23:26 10.72947 -67.13842 6781 ft 292 kts 309°
2026-05-04 23:26 10.74235 -67.15446 7573 ft 294 kts 309°
2026-05-04 23:27 10.75542 -67.17077 8276 ft 300 kts 309°
2026-05-04 23:27 10.76875 -67.18741 9046 ft 302 kts 309°
2026-05-04 23:27 10.78192 -67.20386 9813 ft 305 kts 309°
2026-05-04 23:27 10.79552 -67.22087 10336 ft 316 kts 309°
2026-05-04 23:28 10.80947 -67.23897 10629 ft 334 kts 308°
2026-05-04 23:28 10.82389 -67.25838 10873 ft 352 kts 307°
2026-05-04 23:28 10.83869 -67.27859 11143 ft 367 kts 307°
2026-05-04 23:28 10.85430 -67.29994 11411 ft 382 kts 308°
2026-05-04 23:29 10.87054 -67.32201 11626 ft 396 kts 308°
2026-05-04 23:29 10.88726 -67.34466 12113 ft 400 kts 308°
2026-05-04 23:29 10.90410 -67.36741 12624 ft 405 kts 308°
2026-05-04 23:29 10.92123 -67.39050 13038 ft 411 kts 308°
2026-05-04 23:30 10.93855 -67.41382 13589 ft 413 kts 308°
2026-05-04 23:30 10.95575 -67.43698 14056 ft 416 kts 309°
2026-05-04 23:30 10.97293 -67.46093 14443 ft 421 kts 304°
2026-05-04 23:30 10.98683 -67.48734 14877 ft 426 kts 293°
2026-05-04 23:31 10.99607 -67.51606 15370 ft 428 kts 285°
2026-05-04 23:31 11.00322 -67.54565 15848 ft 430 kts 283°
2026-05-04 23:31 11.00937 -67.57554 16260 ft 434 kts 282°
2026-05-04 23:31 11.01518 -67.60589 16710 ft 437 kts 281°
2026-05-04 23:32 11.02087 -67.63599 17133 ft 439 kts 281°
2026-05-04 23:32 11.02678 -67.66671 17553 ft 442 kts 282°
2026-05-04 23:32 11.03283 -67.69747 17977 ft 445 kts 282°
2026-05-04 23:32 11.03900 -67.72849 18371 ft 448 kts 282°
2026-05-04 23:33 11.04526 -67.75963 18795 ft 448 kts 282°
2026-05-04 23:33 11.05165 -67.79085 19180 ft 450 kts 283°
2026-05-04 23:33 11.05810 -67.82169 19647 ft 450 kts 283°
2026-05-04 23:33 11.06462 -67.85294 20098 ft 450 kts 284°
2026-05-04 23:34 11.07106 -67.88417 20591 ft 449 kts 283°
2026-05-04 23:34 11.07740 -67.91526 21079 ft 448 kts 284°
2026-05-04 23:34 11.08370 -67.94644 21535 ft 449 kts 284°
2026-05-04 23:34 11.08998 -67.97757 22031 ft 448 kts 284°
2026-05-04 23:35 11.09601 -68.00839 22528 ft 448 kts 283°
2026-05-04 23:35 11.10165 -68.03966 22981 ft 449 kts 283°
2026-05-04 23:35 11.10707 -68.07110 23426 ft 449 kts 282°
2026-05-04 23:35 11.11244 -68.10258 23748 ft 451 kts 282°
2026-05-04 23:36 11.11779 -68.13382 24047 ft 453 kts 282°
2026-05-04 23:36 11.12330 -68.16564 24335 ft 456 kts 282°
2026-05-04 23:36 11.12887 -68.19758 24651 ft 457 kts 282°
2026-05-04 23:36 11.13450 -68.22965 24894 ft 460 kts 282°
2026-05-04 23:37 11.14010 -68.26146 25184 ft 462 kts 282°
2026-05-04 23:37 11.14580 -68.29383 25491 ft 464 kts 282°
2026-05-04 23:37 11.15151 -68.32628 25791 ft 465 kts 282°
2026-05-04 23:37 11.15718 -68.35854 26097 ft 467 kts 282°
2026-05-04 23:38 11.16293 -68.39124 26408 ft 468 kts 282°
2026-05-04 23:38 11.16868 -68.42402 26686 ft 470 kts 282°
2026-05-04 23:38 11.17465 -68.45655 26974 ft 472 kts 283°
2026-05-04 23:38 11.18099 -68.48944 27266 ft 473 kts 283°
2026-05-04 23:39 11.18746 -68.52239 27542 ft 475 kts 283°
2026-05-04 23:39 11.19396 -68.55544 27793 ft 478 kts 283°
2026-05-04 23:39 11.20049 -68.58878 28055 ft 480 kts 283°
2026-05-04 23:39 11.20481 -68.61097 28248 ft 481 kts 283°
2026-05-04 23:40 11.21348 -68.65578 28625 ft 483 kts 283°
2026-05-04 23:40 11.21988 -68.68905 28863 ft 485 kts 282°
2026-05-04 23:40 11.22638 -68.72287 29138 ft 486 kts 282°
2026-05-04 23:40 11.23289 -68.75683 29466 ft 487 kts 282°
2026-05-04 23:41 11.23938 -68.79071 29868 ft 485 kts 282°
2026-05-04 23:41 11.24577 -68.82408 30218 ft 484 kts 282°
2026-05-04 23:41 11.25221 -68.85769 30526 ft 483 kts 282°
2026-05-04 23:41 11.25869 -68.89154 30806 ft 483 kts 282°
2026-05-04 23:42 11.26513 -68.92519 31105 ft 483 kts 282°
2026-05-04 23:42 11.27155 -68.95870 31407 ft 482 kts 282°
2026-05-04 23:42 11.27788 -68.99182 31694 ft 482 kts 282°
2026-05-04 23:42 11.28431 -69.02546 31964 ft 481 kts 282°
2026-05-04 23:43 11.29069 -69.05888 32239 ft 480 kts 282°
2026-05-04 23:43 11.29706 -69.09228 32524 ft 480 kts 282°
2026-05-04 23:43 11.30344 -69.12573 32811 ft 479 kts 282°
2026-05-04 23:43 11.30971 -69.15864 33084 ft 479 kts 282°
2026-05-04 23:44 11.31604 -69.19188 33344 ft 478 kts 282°
2026-05-04 23:44 11.32238 -69.22516 33613 ft 477 kts 282°
2026-05-04 23:44 11.32870 -69.25842 33916 ft 476 kts 282°
2026-05-04 23:44 11.33502 -69.29163 34123 ft 476 kts 282°
2026-05-04 23:45 11.34124 -69.32439 34371 ft 475 kts 282°
2026-05-04 23:45 11.34750 -69.35737 34596 ft 474 kts 282°
2026-05-04 23:45 11.35376 -69.39037 34821 ft 473 kts 282°
2026-05-04 23:45 11.36000 -69.42328 35003 ft 473 kts 282°
2026-05-04 23:46 11.36627 -69.45637 35205 ft 473 kts 282°
2026-05-04 23:46 11.37250 -69.48929 35355 ft 474 kts 282°
2026-05-04 23:46 11.37665 -69.51122 35495 ft 473 kts 282°
2026-05-04 23:46 11.38486 -69.55467 35881 ft 468 kts 282°
2026-05-04 23:47 11.39097 -69.58707 36322 ft 463 kts 282°
2026-05-04 23:47 11.39710 -69.61947 36381 ft 466 kts 282°
2026-05-04 23:47 11.40958 -69.68451 36573 ft 468 kts 284°
2026-05-04 23:48 11.41770 -69.71633 36780 ft 466 kts 287°
2026-05-04 23:48 11.42632 -69.74810 37015 ft 465 kts 287°
2026-05-04 23:48 11.43510 -69.77969 37219 ft 463 kts 287°
2026-05-04 23:48 11.44397 -69.81122 37582 ft 458 kts 287°
2026-05-04 23:49 11.46170 -69.87391 37613 ft 465 kts 287°
2026-05-04 23:49 11.47063 -69.90557 37865 ft 463 kts 287°
2026-05-04 23:49 11.47953 -69.93720 37911 ft 464 kts 287°
2026-05-04 23:50 11.49439 -69.99017 37908 ft 465 kts 287°
2026-05-04 23:50 11.51489 -70.06340 37911 ft 460 kts 287°
2026-05-04 23:51 11.53245 -70.12615 37913 ft 460 kts 287°
2026-05-04 23:51 11.54710 -70.17850 37907 ft 461 kts 287°
2026-05-04 23:52 11.56480 -70.24183 37903 ft 464 kts 286°
2026-05-04 23:52 11.58240 -70.30490 37909 ft 462 kts 286°
2026-05-04 23:53 11.59983 -70.36741 37899 ft 460 kts 286°
2026-05-04 23:53 11.61731 -70.43045 37894 ft 461 kts 286°
2026-05-04 23:54 11.63451 -70.49341 37905 ft 464 kts 286°
2026-05-04 23:54 11.65180 -70.55684 37906 ft 463 kts 285°
2026-05-04 23:55 11.66905 -70.62009 37901 ft 461 kts 285°
2026-05-04 23:56 11.69484 -70.71473 37907 ft 464 kts 285°
2026-05-04 23:56 11.71222 -70.77853 37904 ft 465 kts 285°
2026-05-04 23:57 11.72943 -70.84178 37910 ft 463 kts 285°
2026-05-04 23:57 11.74654 -70.90472 37914 ft 462 kts 285°
2026-05-04 23:58 11.76376 -70.96813 37907 ft 464 kts 285°
2026-05-04 23:58 11.78108 -71.03196 37910 ft 465 kts 285°
2026-05-04 23:59 11.79836 -71.09570 37912 ft 464 kts 285°
2026-05-04 23:59 11.81540 -71.15865 37916 ft 462 kts 285°
2026-05-05 00:00 11.83258 -71.22214 37919 ft 464 kts 285°
2026-05-05 00:00 11.84970 -71.28548 37924 ft 465 kts 285°
2026-05-05 00:01 11.86689 -71.34917 37930 ft 464 kts 285°
2026-05-05 00:01 11.88500 -71.41226 37930 ft 462 kts 290°
2026-05-05 00:02 11.91582 -71.46954 37927 ft 466 kts 304°
2026-05-05 00:02 11.95420 -71.52320 37928 ft 467 kts 306°
2026-05-05 00:03 11.99341 -71.57585 37930 ft 464 kts 306°
2026-05-05 00:03 12.03263 -71.62862 37929 ft 468 kts 306°
2026-05-05 00:04 12.07182 -71.68172 37932 ft 469 kts 306°
2026-05-05 00:04 12.11113 -71.73520 37928 ft 471 kts 306°
2026-05-05 00:05 12.15046 -71.78876 37926 ft 470 kts 306°
2026-05-05 00:05 12.18957 -71.84202 37918 ft 468 kts 306°
2026-05-05 00:06 12.22875 -71.89539 37921 ft 468 kts 306°
2026-05-05 00:06 12.26789 -71.94876 37927 ft 469 kts 305°
2026-05-05 00:07 12.30698 -72.00208 37924 ft 471 kts 306°
2026-05-05 00:07 12.34632 -72.05578 37919 ft 472 kts 306°
2026-05-05 00:08 12.38555 -72.10932 37926 ft 472 kts 306°
2026-05-05 00:08 12.42480 -72.16294 37922 ft 472 kts 306°
2026-05-05 00:09 12.46413 -72.21670 37929 ft 471 kts 306°
2026-05-05 00:09 12.50349 -72.27053 37923 ft 472 kts 305°
2026-05-05 00:10 12.54285 -72.32440 37927 ft 472 kts 305°
2026-05-05 00:10 12.58195 -72.37795 37926 ft 471 kts 306°
2026-05-05 00:11 12.62124 -72.43179 37932 ft 471 kts 305°
2026-05-05 00:11 12.66052 -72.48565 37926 ft 471 kts 306°
2026-05-05 00:12 12.69963 -72.53928 37923 ft 472 kts 306°